FW1140 Weather Reports


time (UTC)temp
C
wind
direction
speed
KPH
gust
KPH
rain 1hr
cm
rain 24hr
cm
rain mn
cm
humidity
%
barometer
mb
20260831124523 18 300 6.4 14.5 0.00 0.00 0.00 79 1007.1
20260831123043 18 292 4.8 11.3 0.00 0.00 0.00 80 1006.9
20260831121523 18 259 3.2 11.3 0.00 0.00 0.00 81 1006.6
20260831120032 17 289 3.2 8.0 0.00 0.00 0.00 82 1006.3
20260831114518 17 295 1.6 8.0 0.00 0.00 0.00 80 1005.8
20260831113032 18 307 3.2 9.7 0.00 0.00 0.00 79 1005.6
20260831111525 18 329 3.2 11.3 0.00 0.00 0.00 76 1005.3
20260831110058 19 291 4.8 11.3 0.00 0.00 0.00 75 1005.1
20260831104527 20 288 4.8 11.3 0.00 0.00 0.00 75 1004.8
20260831103027 20 287 4.8 12.9 0.00 0.00 0.00 76 1004.6
20260831101512 20 238 6.4 16.1 0.00 0.00 0.00 76 1004.4
20260831100012 21 309 6.4 17.7 0.00 0.00 0.00 79 1004.3
20260831094530 21 294 6.4 16.1 0.00 0.00 0.00 82 1004.0
20260831093051 21 252 8.0 16.1 0.00 0.00 0.00 83 1003.9
20260831091602 21 287 6.4 17.7 0.00 0.00 0.00 86 1003.9
20260831090049 21 283 6.4 12.9 0.00 0.00 0.00 90 1003.6
20260831084606 21 268 3.2 11.3 0.00 0.00 0.00 91 1003.7
20260831083019 -17 0.0 0.0 0.00 0.00 0.00 1003.5
20260831081557 -17 0.0 0.0 0.00 0.00 0.00 1003.4
20260831080005 -17 0.0 0.0 0.00 0.00 0.00 1003.1
20260831074533 -17 0.0 0.0 0.00 0.00 0.00 1003.0
20260831073019 -17 0.0 0.0 0.00 0.00 0.00 1002.9
20260831071548 -17 0.0 0.0 0.00 0.00 0.00 1002.8
20260831070020 -17 0.0 0.0 0.00 0.00 0.00 1002.6
20260831064612 -17 0.0 0.0 0.00 0.00 0.00 1002.5
20260831063026 -17 0.0 0.0 0.00 0.00 0.00 1002.3
20260831061550 -17 0.0 0.0 0.00 0.00 0.00 1002.0
20260831060012 -17 0.0 0.0 0.00 0.00 0.00 1001.9
20260831054547 -17 0.0 0.0 0.00 0.00 0.00 1001.7
20260831053047 -17 0.0 0.0 0.00 0.00 0.00 1001.5
20260831051619 -17 0.0 0.0 0.00 0.00 0.00 1001.4
20260831050026 23 216 4.8 9.7 0.00 0.00 0.00 93 1001.4
20260831034541 22 226 0.0 3.2 0.00 0.00 0.00 93 1001.8
20260831033050 22 236 0.0 4.8 0.00 0.00 0.00 93 1001.8
20260831031511 22 228 1.6 4.8 0.00 0.00 0.00 92 1001.8
20260831030020 22 228 1.6 3.2 0.00 0.00 0.00 92 1001.6
20260831024633 22 228 0.0 4.8 0.00 0.00 0.00 91 1001.4
20260831023042 23 248 1.6 3.2 0.00 0.00 0.00 91 1001.4
20260831021558 23 224 0.0 4.8 0.00 0.00 0.00 90 1000.9
20260831020003 25 144 3.2 6.4 0.00 0.00 0.00 89 1000.8
20260831014542 24 216 3.2 6.4 0.00 0.00 0.00 88 1000.6
20260831013102 25 117 0.0 3.2 0.00 0.00 0.00 89 1000.7
20260831011601 25 117 0.0 3.2 0.00 0.00 0.00 86 1000.8
20260831010122 26 117 1.6 6.4 0.00 0.00 0.00 84 1000.8
20260831004551 26 127 1.6 4.8 0.00 0.00 0.00 83 1000.9
20260831003053 27 120 3.2 8.0 0.00 0.00 0.00 81 1001.1
20260831001554 27 94 3.2 9.7 0.00 0.00 0.00 79 1001.2
20260831000105 28 116 3.2 9.7 0.00 0.00 0.00 78 1001.2
20260830234534 28 93 4.8 9.7 0.00 0.00 0.00 80 1001.1
20260830233007 27 92 4.8 9.7 0.00 0.00 0.00 80 1000.9
20260830231526 28 70 3.2 12.9 0.00 0.00 0.00 78 1001.1
20260830230049 29 56 4.8 12.9 0.00 0.00 0.00 75 1001.2
20260830224525 30 81 6.4 12.9 0.00 0.00 0.00 74 1001.2
20260830223018 29 40 4.8 11.3 0.00 0.00 0.00 75 1001.4
20260830221551 29 58 8.0 14.5 0.00 0.00 0.00 74 1001.3
20260830220024 28 113 4.8 14.5 0.00 0.00 0.00 74 1001.3
20260830214519 29 72 3.2 11.3 0.00 0.00 0.00 74 1001.4
20260830213031 29 43 6.4 16.1 0.00 0.00 0.00 74 1001.4
20260830211525 28 94 6.4 14.5 0.00 0.00 0.00 74 1001.6
20260830210042 28 60 8.0 16.1 0.00 0.00 0.00 75 1001.7
20260830204545 28 130 6.4 17.7 0.00 0.00 0.00 75 1001.8
20260830203123 26 93 4.8 11.3 0.00 0.00 0.00 80 1002.1
20260830201610 25 57 3.2 8.0 0.00 0.00 0.00 81 1002.3
20260830194552 25 131 6.4 16.1 0.00 0.00 0.00 82 1002.3
20260830193023 25 129 4.8 16.1 0.00 0.00 0.00 82 1002.5
20260830191540 25 134 8.0 16.1 0.00 0.00 0.00 82 1002.8
20260830190041 25 127 4.8 11.3 0.00 0.00 0.00 84 1002.9
20260830184604 23 119 4.8 12.9 0.00 0.00 0.00 85 1003.0
20260830183007 23 120 4.8 11.3 0.00 0.00 0.00 86 1002.9
20260830181533 23 105 4.8 11.3 0.00 0.00 0.00 87 1003.0
20260830180046 22 69 6.4 12.9 0.00 0.00 0.00 88 1003.0
20260830174525 22 95 4.8 12.9 0.00 0.00 0.00 88 1003.1
20260830173009 22 113 4.8 11.3 0.00 0.00 0.00 89 1003.3
20260830171600 22 86 6.4 12.9 0.00 0.00 0.00 90 1003.3
20260830170042 21 119 4.8 11.3 0.00 0.00 0.00 91 1003.3
20260830164558 21 128 6.4 14.5 0.00 0.00 0.00 94 1003.3
20260830163103 21 29 6.4 11.3 0.00 0.00 0.00 95 1003.4
20260830161540 20 92 4.8 11.3 0.00 0.00 0.00 95 1003.5
20260830160008 20 75 6.4 12.9 0.00 0.00 0.00 95 1003.5
20260830154529 20 103 4.8 12.9 0.00 0.00 0.00 95 1003.6
20260830153028 20 73 4.8 9.7 0.00 0.00 0.00 95 1003.7
20260830151542 20 58 4.8 11.3 0.00 0.00 0.00 95 1003.6
20260830150035 20 77 3.2 9.7 0.00 0.00 0.00 95 1003.5
20260830144533 20 56 3.2 8.0 0.00 0.00 0.00 95 1003.5
20260830143052 20 73 4.8 8.0 0.00 0.00 0.00 95 1003.3
20260830141539 20 103 3.2 8.0 0.00 0.00 0.00 95 1003.3
20260830140031 20 72 3.2 9.7 0.00 0.00 0.00 95 1003.1
20260830134557 20 100 3.2 9.7 0.00 0.00 0.00 95 1003.1
20260830133012 19 68 1.6 6.4 0.00 0.00 0.00 95 1003.4
20260830131501 19 63 1.6 6.4 0.00 0.00 0.00 95 1003.3
20260830130024 19 108 1.6 8.0 0.00 0.00 0.00 95 1003.3